SCP
0 0 0 0 0 0 0 0 0 0 0 0 0 0 0 0 0 0 0 0 0 0 0 0 0 0 0 0 0 0 0 0 0 0 0 0 0 0 0 0 0 0 0
0 0 0 0 0 0 0 0 0 0 0 0 0 0 0 0 0 0 0 0 0 0 0 0 0 0 0 0 0 0 0 0 0 0 0 0 0 0 0 0 0 0 0
0 0 0 0 0 0 0 0 0 0 0 0 0 0 0 0 0 0 0 0 0 0 0 0 0 0 0 0 0 0 0 0 0 0 0 0 0 0 0 0 0 0 0
0 0 0 0 0 0 0 0 0 0 0 0 0 0 0 0 0 0 0 0 0 0 0 0 0 0 0 0 0 0 0 0 0 0 0 0 0 0 0 0 0 0 0
0 0 0 0 0 0 0 0 0 0 0 0 0 0 0 0 0 0 0 0 0 0 0 0 0 0 0 0 0 0 0 0 0 0 0 0 0 0 0 0 0 0 0
0 0 0 0 0 0 0 0 0 0 0 0 0 0 0 0 0 0 0 0 0 0 0 0 0 0 0 0 0 0 0 0 0 0 0 0 0 0 0 0 0 0 0
0 0 0 0 0 0 0 0 0 0 0 0 0 0 0 0 0 0 0 0 0 0 0 0 0 0 0 0 0 0 0 0 0 0 0 0 0 0 0 0 0 0 0
0 0 0 0 0 0 0 0 0 0 0 -0 -0 -0 0 0 0 0 0 0 0 0 0 0 0 0 0 0 0 0 0 0 0 0 0 0 0 0 0 0 0 0 0
0 0 0 0 0 0 0 0 0 0 0 0 0 -0 0 0 0 0 0 0 0 0 0 0 0 0 0 0 0 0 0 0 0 0 0 0 0 0 0 0 0 0 0
0 0 0 0 0 0 0 0 0 0 0 0 0 0 0 0 0 0 0 0 0 0 0 0 0 0 0 0 0 0 0 0 0 0 0 0 0 0 0 0 0 0 0
0 0 0 0 0 0 0 0 0 0 0 0 0 0 0 0 0 0 0 0 0 0 0 0 0 0 0 0 0 0 0 0 0 0 0 0 0 0 0 0 0 0 0
0 0 0 0 0 0 0 0 0 0 0 0 0 0 0 0 0 0 0 0 0 0 0 0 0 0 0 0 0 0 0 0 0 0 0 0 0 0 0 0 0 0 0
0 0 0 0 0 0 0 0 0 0 0 0 0 0 0 0 0 0 0 0 0 0 -0 0 -0 0 0 0 0 0 0 0 0 0 0 0 0 0 0 0 0 0 0
0 0 0 0 0 0 0 0 0 0 0 0 0 0 0 0 0 0 0 0 0 0 0 0 0 0 0 0 0 0 0 0 0 0 0 0 0 0 0 0 0 0 0
0 0 0 0 0 0 0 0 0 0 0 0 0 0 0 0 0 0 0 0 0 0 0 0 0 0 0 0 0 0 0 0 0 0 0 0 0 0 0 0 0 0 0
0 0 0 0 0 0 0 0 0 0 0 0 0 0 0 0 0 0 0 0 0 0 0 0 0 0 0 0 0 0 0 0 0 0 0 0 0 0 0 0 0 0 0
0 0 0 0 0 0 0 0 0 0 0 0 0 0 0 0 0 0 0 0 0 0 0 0 0 0 0 0 0 0 0 0 0 0 0 0 0 0 0 0 0 0 0
0 0 0 0 0 0 0 0 0 0 0 0 0 0 0 0 0 0 0 0 0 0 0 0 0 0 0 0 0 0 0 0 0 0 0 0 0 0 0 0 0 0 0
0 0 0 0 0 0 0 0 0 0 0 0 0 0 0 0 0 0 0 0 0 0 0 0 0 0 0 0 0 0 0 0 0 0 0 0 0 0 0 0 0 0 0
0 0 0 0 0 0 0 0 0 0 0 0 0 0 0 0 0 0 0 0 0 0 0 0 0 0 0 0 0 0 0 0 0 0 0 0 0 0 0 0 0 0 0
0 0 0 0 0 0 0 0 0 0 0 0 0 0 0 0 0 0 0 0 0 0 0 0 0 0 0 0 0 0 0 0 0 0 0 0 0 0 0 0 0 0 0
0 0 0 0 0 0 0 0 0 0 0 0 0 0 0 0 0 0 0 0 0 0 0 0 0 0 0 0 0 0 0 0 0 0 0 0 0 0 0 0 0 0 0
0 0 0 0 0 0 0 0 0 0 0 0 0 0 0 0 0 0 0 0 0 0 0 0 0 0 0 0 0 0 0 0 0 0 0 0 0 0 0 0 0 -0 0
0 0 0 0 0 0 0 0 0 0 0 0 0 0 0 0 0 0 0 0 0 0 0 0 0 0 0 0 0 0 0 0 0 0 0 0 0 0 0 0 0 -0 -0
0 0 0 0 0 0 0 0 0 0 0 0 0 0 0 0 0 0 0 0 0 0 0 0 0 0 0 0 0 0 0 0 0 0 0 0 0 0 0 0 0 -0 -0
0 0 0 0 0 0 0 0 0 0 0 0 0 0 0 0 0 0 0 0 0 0 0 0 0 0 0 0 0 0 0 0 0 0 0 0 0 0 0 0 0 0 0
Wind_Speed_500mb
9 7 6 4 8 15 22 24 29 31 33 37 41 45 48 47 45 41 36 33 30 25 16 14 15 17 14 10 7 11 18 18 17 21 23 24 29 34 39 43 46 48 51
10 8 9 9 15 22 26 26 33 39 43 47 48 46 42 38 32 26 21 19 17 14 16 16 18 17 13 17 17 19 23 27 28 30 35 36 39 40 42 41 40 44 49
10 7 9 15 20 19 25 32 40 45 47 44 38 32 28 26 25 19 16 16 17 19 20 21 23 23 26 26 27 31 35 38 37 37 38 45 45 46 46 48 48 47 46
10 11 13 14 15 22 29 36 40 40 37 35 29 23 25 24 23 19 16 19 22 23 24 26 27 29 32 34 37 37 40 43 46 49 52 56 56 54 51 50 51 53 54
11 14 10 12 18 25 29 33 35 35 33 30 27 22 25 20 20 20 20 17 21 23 27 28 28 35 37 40 42 43 45 48 48 42 37 43 46 37 41 42 45 53 58
15 10 7 13 20 27 30 31 31 32 35 37 34 31 17 16 17 23 34 24 32 29 42 35 37 45 43 45 48 49 53 53 50 30 46 39 30 31 32 32 35 35 38
15 6 8 15 24 33 38 37 34 32 37 44 46 41 19 7 24 25 19 33 41 36 42 43 55 50 54 55 57 57 58 59 48 34 42 33 33 33 37 40 39 42 44
13 4 9 19 29 36 38 38 36 36 39 45 47 37 22 21 3 22 47 38 48 37 54 46 54 55 57 58 60 63 67 66 58 48 37 36 37 41 44 46 47 50 51
13 4 11 21 29 35 38 39 38 37 36 35 37 31 17 14 63 16 54 34 62 56 68 65 65 61 61 64 67 69 69 63 53 42 38 41 46 49 53 56 58 59 60
11 6 14 21 29 35 35 35 36 37 37 37 33 32 29 33 26 36 34 76 67 82 79 79 74 77 69 65 65 68 65 55 43 43 48 51 55 60 65 67 65 64 63
10 9 15 22 28 32 33 34 33 34 36 38 40 42 40 38 37 41 69 83 91 87 84 87 82 72 69 61 58 53 51 47 49 52 54 62 69 69 68 69 70 69 70
12 13 16 22 28 31 33 34 34 34 37 39 40 39 41 41 44 45 66 86 86 87 97 82 80 68 67 55 52 61 56 52 58 59 68 69 69 70 71 72 74 75 75
15 14 17 24 29 32 34 34 34 36 40 41 43 42 42 41 45 51 62 79 91 106 67 86 70 61 58 49 63 56 62 61 68 69 69 72 73 72 73 74 76 78 82
16 16 21 26 31 34 35 36 37 39 41 42 42 43 45 47 49 51 57 69 90 62 78 66 63 39 49 56 56 59 66 67 70 73 73 73 74 73 75 78 81 82 84
18 20 24 29 33 36 38 38 39 41 41 43 45 49 51 51 54 55 57 56 57 62 88 61 46 83 74 67 63 64 67 67 66 72 76 74 73 77 85 86 90 92 91
22 23 27 33 35 38 39 39 40 42 43 47 52 54 56 57 58 58 58 57 53 58 72 88 87 82 77 79 75 64 67 69 73 68 61 69 83 91 93 94 90 83 81
24 26 31 34 36 38 40 41 43 45 50 54 55 59 60 58 59 57 57 57 56 56 71 99 87 88 93 83 80 77 79 73 70 63 75 86 87 82 82 84 81 79 78
25 29 33 36 38 38 42 44 47 51 56 58 60 61 62 58 58 56 54 56 59 56 62 80 91 95 88 87 84 88 86 74 85 79 76 79 81 83 76 72 72 74 74
27 31 34 37 38 41 43 47 53 56 57 60 61 61 61 60 60 57 55 58 57 59 62 73 91 90 90 79 86 77 87 82 76 73 76 72 72 70 68 72 79 79 78
28 31 34 37 40 43 47 51 56 58 60 60 59 58 58 54 51 48 51 53 59 68 69 76 82 85 74 66 81 79 84 79 82 77 84 80 71 70 71 73 72 74 76
28 31 34 37 41 45 51 56 57 58 60 59 57 53 49 45 42 44 49 62 65 65 75 77 60 65 85 83 80 86 85 87 88 81 85 85 78 82 91 80 74 70 67
28 32 35 40 44 50 55 58 60 55 59 59 55 51 46 48 53 54 60 50 57 60 55 77 80 79 79 83 88 84 82 89 97 77 71 101 87 90 88 86 74 65 68
29 33 39 44 49 56 58 59 56 52 56 53 50 53 52 55 60 63 56 71 45 65 67 69 77 74 80 80 81 91 89 86 89 96 83 95 90 95 91 88 78 71 71
32 37 42 49 54 57 58 57 53 50 49 47 51 52 57 66 59 59 65 68 79 83 79 62 62 70 71 79 77 76 80 85 91 90 67 81 92 92 93 92 86 71 67
34 40 47 53 56 55 56 58 50 47 47 52 52 55 65 56 65 59 63 76 77 80 60 63 59 71 72 62 56 61 73 78 84 88 85 74 81 87 96 93 68 63 63
39 46 49 51 52 55 56 50 42 43 50 54 55 64 62 58 58 56 66 70 75 65 69 72 80 67 57 54 58 56 63 72 77 87 78 76 87 77 68 74 72 86 80
Wind_Direction_500mb
235 257 243 276 307 303 304 307 305 307 306 304 302 301 300 299 297 295 294 292 291 292 280 260 267 277 288 296 266 264 270 270 278 278 279 276 269 271 276 275 269 266 265
251 251 246 270 285 292 301 308 307 307 308 306 305 304 301 301 302 301 297 289 281 275 270 274 275 287 282 274 281 277 275 274 279 282 282 279 280 281 283 281 274 265 263
241 203 267 287 294 304 311 314 309 307 305 304 307 307 303 299 295 291 288 283 280 279 279 283 287 288 285 285 282 280 284 282 282 280 277 276 277 277 274 272 270 267 266
222 232 261 280 299 311 314 312 307 306 309 314 319 314 305 296 278 274 289 293 288 285 284 283 285 287 287 285 282 281 283 282 280 278 277 278 277 276 273 270 266 264 264
207 230 249 286 312 321 324 324 323 326 328 329 332 329 310 287 265 254 272 298 307 299 308 293 301 303 297 293 289 286 283 282 282 289 287 285 283 286 285 281 278 273 267
202 199 270 319 333 338 342 340 342 339 335 337 339 340 322 289 258 263 279 273 319 303 318 297 299 310 302 298 294 292 288 287 286 290 282 287 292 287 286 287 285 283 285
191 222 313 345 348 350 353 350 346 342 339 342 345 353 346 302 279 288 285 273 317 296 309 307 301 302 301 299 296 293 291 289 293 283 289 296 291 290 291 290 287 284 281
194 236 336 352 356 356 352 348 346 349 350 350 353 353 341 336 219 298 303 301 294 303 305 308 307 305 305 302 297 293 292 293 289 287 297 295 289 290 290 289 288 285 282
202 264 340 351 351 352 352 348 344 345 345 350 353 4 341 322 319 311 322 314 317 315 318 319 318 318 315 309 302 298 296 295 289 292 293 290 288 289 289 289 288 285 283
207 292 334 340 346 349 347 341 339 337 338 340 344 343 336 322 319 318 313 317 321 319 322 322 322 321 319 313 305 301 300 297 293 293 291 290 289 288 287 287 285 283 281
223 293 318 335 341 341 339 337 333 331 333 335 336 334 332 330 326 310 311 316 318 321 321 323 322 323 320 314 308 305 300 293 293 293 293 291 290 289 287 285 283 280 280
242 284 313 328 332 334 332 330 329 328 327 327 329 331 331 330 324 321 314 316 316 320 319 320 323 323 320 316 304 297 295 294 295 293 292 292 291 289 287 283 283 281 280
254 283 309 319 323 325 327 327 325 324 324 324 325 324 324 321 319 317 315 318 317 319 325 318 324 323 321 314 312 300 294 296 296 296 295 292 292 288 286 284 282 281 280
258 283 300 311 318 322 324 323 322 322 321 320 320 321 320 320 317 318 319 323 322 316 317 315 321 331 313 315 305 298 295 298 299 298 296 293 292 288 287 286 285 283 280
259 280 297 308 314 318 319 319 319 318 319 320 320 320 320 319 316 316 317 320 321 310 312 311 312 314 321 317 312 306 297 298 298 295 293 291 288 289 290 288 285 283 280
262 281 298 307 312 314 315 316 318 319 320 321 320 319 317 316 314 315 316 320 317 308 299 306 313 318 320 316 316 307 305 302 300 296 289 296 295 293 291 288 286 284 280
268 287 299 305 308 310 313 317 319 320 319 319 319 315 315 316 314 316 317 317 315 314 303 309 315 317 317 317 316 314 312 303 302 295 296 296 295 292 290 286 284 282 281
275 291 299 303 308 313 316 319 321 320 320 319 317 316 316 316 314 312 310 312 312 314 307 308 312 314 315 316 313 312 311 307 305 301 297 298 296 291 288 285 284 282 283
283 292 299 304 309 315 319 321 320 319 319 319 318 316 316 316 313 313 313 314 319 315 310 303 305 312 315 311 309 310 312 309 303 301 302 298 297 294 289 288 287 284 282
286 294 301 308 316 320 321 319 318 320 319 318 318 320 319 318 320 323 321 319 313 308 306 303 302 303 302 309 315 310 309 308 305 306 304 301 301 294 293 291 289 285 282
289 297 307 315 317 318 320 322 321 318 318 321 323 324 326 328 327 319 317 311 311 309 306 309 316 312 311 311 312 316 309 310 306 307 304 303 303 300 300 300 297 291 286
296 306 311 313 316 320 323 322 319 317 318 321 325 330 330 327 327 321 317 314 308 309 315 315 311 308 308 314 317 314 310 308 306 311 306 303 304 301 303 307 304 292 288
302 309 312 316 321 323 322 321 320 318 316 322 329 330 327 327 325 325 328 321 317 316 313 312 310 311 312 315 314 311 308 304 301 304 306 301 310 306 312 312 306 295 292
306 309 316 320 322 322 321 322 323 317 318 324 329 328 326 328 330 328 319 317 317 314 319 319 312 311 310 308 306 302 303 303 304 308 306 296 310 305 313 310 310 300 294
309 316 320 322 321 322 324 324 323 322 323 327 328 328 332 327 326 321 319 318 316 316 323 321 311 310 312 311 310 311 309 312 307 312 318 305 308 306 313 313 313 305 298
318 319 320 321 324 324 324 329 329 325 325 331 329 327 327 324 323 321 320 317 313 324 328 313 315 316 321 326 330 323 322 315 310 310 320 312 314 313 311 308 310 319 320
Wind_Speed_850mb
9 7 6 4 8 15 22 24 29 31 33 37 41 45 48 47 45 41 36 33 30 25 16 14 15 17 14 10 7 11 18 18 17 21 23 24 29 34 39 43 46 48 51
10 8 9 9 15 22 26 26 33 39 43 47 48 46 42 38 32 26 21 19 17 14 16 16 18 17 13 17 17 19 23 27 28 30 35 36 39 40 42 41 40 44 49
10 7 9 15 20 19 25 32 40 45 47 44 38 32 28 26 25 19 16 16 17 19 20 21 23 23 26 26 27 31 35 38 37 37 38 45 45 46 46 48 48 47 46
10 11 13 14 15 22 29 36 40 40 37 35 29 23 25 24 23 19 16 19 22 23 24 26 27 29 32 34 37 37 40 43 46 49 52 56 56 54 51 50 51 53 54
11 14 10 12 18 25 29 33 35 35 33 30 27 22 25 20 20 20 20 17 21 23 27 28 28 35 37 40 42 43 45 48 48 42 37 43 46 37 41 42 45 53 58
15 10 7 13 20 27 30 31 31 32 35 37 34 31 17 16 17 23 34 24 32 29 42 35 37 45 43 45 48 49 53 53 50 30 46 39 30 31 32 32 35 35 38
15 6 8 15 24 33 38 37 34 32 37 44 46 41 19 7 24 25 19 33 41 36 42 43 55 50 54 55 57 57 58 59 48 34 42 33 33 33 37 40 39 42 44
13 4 9 19 29 36 38 38 36 36 39 45 47 37 22 21 3 22 47 38 48 37 54 46 54 55 57 58 60 63 67 66 58 48 37 36 37 41 44 46 47 50 51
13 4 11 21 29 35 38 39 38 37 36 35 37 31 17 14 63 16 54 34 62 56 68 65 65 61 61 64 67 69 69 63 53 42 38 41 46 49 53 56 58 59 60
11 6 14 21 29 35 35 35 36 37 37 37 33 32 29 33 26 36 34 76 67 82 79 79 74 77 69 65 65 68 65 55 43 43 48 51 55 60 65 67 65 64 63
10 9 15 22 28 32 33 34 33 34 36 38 40 42 40 38 37 41 69 83 91 87 84 87 82 72 69 61 58 53 51 47 49 52 54 62 69 69 68 69 70 69 70
12 13 16 22 28 31 33 34 34 34 37 39 40 39 41 41 44 45 66 86 86 87 97 82 80 68 67 55 52 61 56 52 58 59 68 69 69 70 71 72 74 75 75
15 14 17 24 29 32 34 34 34 36 40 41 43 42 42 41 45 51 62 79 91 106 67 86 70 61 58 49 63 56 62 61 68 69 69 72 73 72 73 74 76 78 82
16 16 21 26 31 34 35 36 37 39 41 42 42 43 45 47 49 51 57 69 90 62 78 66 63 39 49 56 56 59 66 67 70 73 73 73 74 73 75 78 81 82 84
18 20 24 29 33 36 38 38 39 41 41 43 45 49 51 51 54 55 57 56 57 62 88 61 46 83 74 67 63 64 67 67 66 72 76 74 73 77 85 86 90 92 91
22 23 27 33 35 38 39 39 40 42 43 47 52 54 56 57 58 58 58 57 53 58 72 88 87 82 77 79 75 64 67 69 73 68 61 69 83 91 93 94 90 83 81
24 26 31 34 36 38 40 41 43 45 50 54 55 59 60 58 59 57 57 57 56 56 71 99 87 88 93 83 80 77 79 73 70 63 75 86 87 82 82 84 81 79 78
25 29 33 36 38 38 42 44 47 51 56 58 60 61 62 58 58 56 54 56 59 56 62 80 91 95 88 87 84 88 86 74 85 79 76 79 81 83 76 72 72 74 74
27 31 34 37 38 41 43 47 53 56 57 60 61 61 61 60 60 57 55 58 57 59 62 73 91 90 90 79 86 77 87 82 76 73 76 72 72 70 68 72 79 79 78
28 31 34 37 40 43 47 51 56 58 60 60 59 58 58 54 51 48 51 53 59 68 69 76 82 85 74 66 81 79 84 79 82 77 84 80 71 70 71 73 72 74 76
28 31 34 37 41 45 51 56 57 58 60 59 57 53 49 45 42 44 49 62 65 65 75 77 60 65 85 83 80 86 85 87 88 81 85 85 78 82 91 80 74 70 67
28 32 35 40 44 50 55 58 60 55 59 59 55 51 46 48 53 54 60 50 57 60 55 77 80 79 79 83 88 84 82 89 97 77 71 101 87 90 88 86 74 65 68
29 33 39 44 49 56 58 59 56 52 56 53 50 53 52 55 60 63 56 71 45 65 67 69 77 74 80 80 81 91 89 86 89 96 83 95 90 95 91 88 78 71 71
32 37 42 49 54 57 58 57 53 50 49 47 51 52 57 66 59 59 65 68 79 83 79 62 62 70 71 79 77 76 80 85 91 90 67 81 92 92 93 92 86 71 67
34 40 47 53 56 55 56 58 50 47 47 52 52 55 65 56 65 59 63 76 77 80 60 63 59 71 72 62 56 61 73 78 84 88 85 74 81 87 96 93 68 63 63
39 46 49 51 52 55 56 50 42 43 50 54 55 64 62 58 58 56 66 70 75 65 69 72 80 67 57 54 58 56 63 72 77 87 78 76 87 77 68 74 72 86 80
Wind_Direction_850mb
235 257 243 276 307 303 304 307 305 307 306 304 302 301 300 299 297 295 294 292 291 292 280 260 267 277 288 296 266 264 270 270 278 278 279 276 269 271 276 275 269 266 265
251 251 246 270 285 292 301 308 307 307 308 306 305 304 301 301 302 301 297 289 281 275 270 274 275 287 282 274 281 277 275 274 279 282 282 279 280 281 283 281 274 265 263
241 203 267 287 294 304 311 314 309 307 305 304 307 307 303 299 295 291 288 283 280 279 279 283 287 288 285 285 282 280 284 282 282 280 277 276 277 277 274 272 270 267 266
222 232 261 280 299 311 314 312 307 306 309 314 319 314 305 296 278 274 289 293 288 285 284 283 285 287 287 285 282 281 283 282 280 278 277 278 277 276 273 270 266 264 264
207 230 249 286 312 321 324 324 323 326 328 329 332 329 310 287 265 254 272 298 307 299 308 293 301 303 297 293 289 286 283 282 282 289 287 285 283 286 285 281 278 273 267
202 199 270 319 333 338 342 340 342 339 335 337 339 340 322 289 258 263 279 273 319 303 318 297 299 310 302 298 294 292 288 287 286 290 282 287 292 287 286 287 285 283 285
191 222 313 345 348 350 353 350 346 342 339 342 345 353 346 302 279 288 285 273 317 296 309 307 301 302 301 299 296 293 291 289 293 283 289 296 291 290 291 290 287 284 281
194 236 336 352 356 356 352 348 346 349 350 350 353 353 341 336 219 298 303 301 294 303 305 308 307 305 305 302 297 293 292 293 289 287 297 295 289 290 290 289 288 285 282
202 264 340 351 351 352 352 348 344 345 345 350 353 4 341 322 319 311 322 314 317 315 318 319 318 318 315 309 302 298 296 295 289 292 293 290 288 289 289 289 288 285 283
207 292 334 340 346 349 347 341 339 337 338 340 344 343 336 322 319 318 313 317 321 319 322 322 322 321 319 313 305 301 300 297 293 293 291 290 289 288 287 287 285 283 281
223 293 318 335 341 341 339 337 333 331 333 335 336 334 332 330 326 310 311 316 318 321 321 323 322 323 320 314 308 305 300 293 293 293 293 291 290 289 287 285 283 280 280
242 284 313 328 332 334 332 330 329 328 327 327 329 331 331 330 324 321 314 316 316 320 319 320 323 323 320 316 304 297 295 294 295 293 292 292 291 289 287 283 283 281 280
254 283 309 319 323 325 327 327 325 324 324 324 325 324 324 321 319 317 315 318 317 319 325 318 324 323 321 314 312 300 294 296 296 296 295 292 292 288 286 284 282 281 280
258 283 300 311 318 322 324 323 322 322 321 320 320 321 320 320 317 318 319 323 322 316 317 315 321 331 313 315 305 298 295 298 299 298 296 293 292 288 287 286 285 283 280
259 280 297 308 314 318 319 319 319 318 319 320 320 320 320 319 316 316 317 320 321 310 312 311 312 314 321 317 312 306 297 298 298 295 293 291 288 289 290 288 285 283 280
262 281 298 307 312 314 315 316 318 319 320 321 320 319 317 316 314 315 316 320 317 308 299 306 313 318 320 316 316 307 305 302 300 296 289 296 295 293 291 288 286 284 280
268 287 299 305 308 310 313 317 319 320 319 319 319 315 315 316 314 316 317 317 315 314 303 309 315 317 317 317 316 314 312 303 302 295 296 296 295 292 290 286 284 282 281
275 291 299 303 308 313 316 319 321 320 320 319 317 316 316 316 314 312 310 312 312 314 307 308 312 314 315 316 313 312 311 307 305 301 297 298 296 291 288 285 284 282 283
283 292 299 304 309 315 319 321 320 319 319 319 318 316 316 316 313 313 313 314 319 315 310 303 305 312 315 311 309 310 312 309 303 301 302 298 297 294 289 288 287 284 282
286 294 301 308 316 320 321 319 318 320 319 318 318 320 319 318 320 323 321 319 313 308 306 303 302 303 302 309 315 310 309 308 305 306 304 301 301 294 293 291 289 285 282
289 297 307 315 317 318 320 322 321 318 318 321 323 324 326 328 327 319 317 311 311 309 306 309 316 312 311 311 312 316 309 310 306 307 304 303 303 300 300 300 297 291 286
296 306 311 313 316 320 323 322 319 317 318 321 325 330 330 327 327 321 317 314 308 309 315 315 311 308 308 314 317 314 310 308 306 311 306 303 304 301 303 307 304 292 288
302 309 312 316 321 323 322 321 320 318 316 322 329 330 327 327 325 325 328 321 317 316 313 312 310 311 312 315 314 311 308 304 301 304 306 301 310 306 312 312 306 295 292
306 309 316 320 322 322 321 322 323 317 318 324 329 328 326 328 330 328 319 317 317 314 319 319 312 311 310 308 306 302 303 303 304 308 306 296 310 305 313 310 310 300 294
309 316 320 322 321 322 324 324 323 322 323 327 328 328 332 327 326 321 319 318 316 316 323 321 311 310 312 311 310 311 309 312 307 312 318 305 308 306 313 313 313 305 298
318 319 320 321 324 324 324 329 329 325 325 331 329 327 327 324 323 321 320 317 313 324 328 313 315 316 321 326 330 323 322 315 310 310 320 312 314 313 311 308 310 319 320